TimeEST,TemperatureF,Dew PointF,Humidity,Sea Level PressureIn,VisibilityMPH,Wind Direction,Wind SpeedMPH,Gust SpeedMPH,PrecipitationIn,Events,Conditions,WindDirDegrees,DateUTC
12:54 AM,30.9,12.0,46,30.25,10.0,WNW,4.6,-,N/A,,Clear,290,2012-02-13 05:54:00
1:54 AM,28.0,14.0,56,30.24,10.0,WNW,4.6,-,N/A,,Clear,300,2012-02-13 06:54:00
2:54 AM,26.1,15.1,63,30.24,10.0,Calm,Calm,-,N/A,,Clear,0,2012-02-13 07:54:00
3:54 AM,21.9,16.0,78,30.25,10.0,West,3.5,-,N/A,,Clear,260,2012-02-13 08:54:00
4:54 AM,25.0,16.0,69,30.25,10.0,Calm,Calm,-,N/A,,Clear,0,2012-02-13 09:54:00
5:54 AM,25.0,14.0,63,30.27,10.0,Calm,Calm,-,N/A,,Clear,0,2012-02-13 10:54:00
6:54 AM,19.9,15.1,81,30.28,10.0,Calm,Calm,-,N/A,,Clear,0,2012-02-13 11:54:00
7:54 AM,24.1,18.0,77,30.29,10.0,Calm,Calm,-,N/A,,Clear,0,2012-02-13 12:54:00
8:54 AM,34.0,19.0,54,30.32,10.0,NNW,3.5,-,N/A,,Clear,330,2012-02-13 13:54:00
10:54 AM,41.0,12.9,32,30.31,10.0,Calm,Calm,-,N/A,,Clear,0,2012-02-13 15:54:00
11:54 AM,45.0,16.0,31,30.28,10.0,Variable,3.5,-,N/A,,Clear,0,2012-02-13 16:54:00
12:54 PM,46.9,14.0,27,30.23,10.0,WSW,4.6,-,N/A,,Clear,240,2012-02-13 17:54:00
1:54 PM,48.9,12.9,24,30.20,10.0,Calm,Calm,-,N/A,,Clear,0,2012-02-13 18:54:00
2:54 PM,51.1,14.0,23,30.18,10.0,West,10.4,-,N/A,,Clear,260,2012-02-13 19:54:00
3:54 PM,50.0,16.0,26,30.17,10.0,WSW,8.1,-,N/A,,Clear,240,2012-02-13 20:54:00
4:54 PM,48.9,15.1,26,30.17,10.0,SW,5.8,-,N/A,,Clear,230,2012-02-13 21:54:00
5:54 PM,48.9,17.1,28,30.16,10.0,Calm,Calm,-,N/A,,Clear,0,2012-02-13 22:54:00
6:54 PM,43.0,25.0,49,30.17,10.0,Calm,Calm,-,N/A,,Clear,0,2012-02-13 23:54:00
7:54 PM,39.0,28.9,67,30.17,10.0,Calm,Calm,-,N/A,,Clear,0,2012-02-14 00:54:00
8:54 PM,39.9,26.1,58,30.17,10.0,South,3.5,-,N/A,,Clear,180,2012-02-14 01:54:00
9:54 PM,39.9,26.1,58,30.17,10.0,South,4.6,-,N/A,,Clear,190,2012-02-14 02:54:00
10:54 PM,37.0,26.1,65,30.17,10.0,Calm,Calm,-,N/A,,Clear,0,2012-02-14 03:54:00
11:54 PM,37.0,26.1,65,30.16,10.0,Calm,Calm,-,N/A,,Clear,0,2012-02-14 04:54:00